Regional Weather Roundup
Issued by NWS Albany, NY

Home | Current Version | Previous Version | Text Only | Print | Product List | Glossary On
Versions: 1 2 3 4 5 6 7 8 9 10 11 12 13 14 15 16 17 18 19 20 21 22 23 24 25 26 27 28 29 30 31 32 33 34 35 36 37 38 39 40 41 42 43 44 45 46 47 48 49 50
000
ASUS41 KALY 070310
RWRALY

NEW YORK STATE HOURLY WEATHER ROUNDUP
NATIONAL WEATHER SERVICE ALBANY NY
1100 PM EDT MON JUL 06 2015

NOTE: "FAIR" INDICATES FEW OR NO CLOUDS BELOW 12,000 FEET WITH NO
SIGNIFICANT WEATHER AND/OR NO OBSTRUCTIONS TO VISIBILITY.

NYZ032-033-038>043-046>054-057>066-NYZ062>081-070400-
EAST


CITY           SKY/WX    TMP DP  RH WIND       PRES   REMARKS
ALBANY         PTCLDY    77  66  68 SE9       30.06F
GLENS FALLS    CLEAR     69  63  81 CALM      30.06S
POUGHKEEPSIE   CLEAR     73  66  78 CALM      30.09R
NEWBURGH       MOCLDY    73  68  83 VRB6      30.11S
MONTGOMERY     CLOUDY    70  67  90 CALM      30.09F
WHITE PLAINS   MOCLDY    72  64  76 SE5       30.11F
ISLIP          CLOUDY    74  65  73 S12       30.10S
NEW YORK CITY  CLOUDY    75  64  68 S8        30.10S
CENTRAL PARK   CLOUDY    75  64  68 S6        30.13F
$$

NYZ005>009-017-018-044>046-055-056-070400-
CENTRAL


CITY           SKY/WX    TMP DP  RH WIND       PRES   REMARKS
FULTON         CLEAR     73  66  78 CALM      30.00F
SYRACUSE       PTCLDY    74  68  81 SE6       30.01S
ROME           CLEAR     73  65  75 E7        30.04F
ELMIRA         CLEAR     70  68  93 CALM      30.03S
BINGHAMTON     PTCLDY    70  65  84 S9        30.09S
MONTICELLO     CLEAR     68  64  88 S6        30.14S
$$

NYZ026>034-041>043-070400-
NORTH


CITY           SKY/WX    TMP DP  RH WIND       PRES   REMARKS
WATERTOWN      CLEAR     73  65  75 S6        29.98F
FORT DRUM      NOT AVBL
MASSENA        CLEAR     65  62  90 CALM      30.00F
SARANAC LAKE   CLEAR     58  56  93 CALM      30.07F
PLATTSBURGH    CLEAR     64  61  90 CALM      30.02F
$$

NYZ001>004-010>016-019>021-070400-
WEST


CITY           SKY/WX    TMP DP  RH WIND       PRES   REMARKS
NIAGARA FALLS  PTCLDY    72  66  81 S6        29.97S
BUFFALO        PTCLDY    72  68  87 S6        29.99R
DUNKIRK        CLEAR     69  66  90 S5        29.99S
JAMESTOWN      MOCLDY    68  64  88 S5        30.05S
WELLSVILLE     CLEAR     69  65  86 SE6       30.08F
ROCHESTER      MOCLDY    76  66  71 S6        29.99S
PENN YAN       CLEAR     70  67  90 S3        30.03S
$$

             KEY
       WCI = WIND CHILL INDEX
       VSB = VISIBILITY
       HX  = HEAT INDEX
$$


USA.gov is the U.S. government's official web portal to all federal, state and local government web resources and services.